Location: Unspecified
(43.8044°N, 11.0278°E)
Time: 04:17:39
(UTC+02:00)

Resurs 1-4 Rocket - Visible Passes

Search period start: 03 September 2014 00:00
Search period end: 13 September 2014 00:00
Orbit: 800 x 815 km, 98.3° (Epoch: 01 September)

Date Brightness Start Highest point End Pass type
(mag) Time Alt. Az. Time Alt. Az. Time Alt. Az.
03 Sep 4.7 04:05:10 10° NE 04:08:13 15° E 04:11:15 10° SE visible
03 Sep 2.1 05:43:20 10° N 05:48:36 72° WNW 05:53:52 10° SSW visible
04 Sep 2.4 05:18:55 10° NNE 05:24:12 72° ESE 05:29:29 10° S visible
05 Sep 3.2 04:54:41 10° NNE 04:59:43 43° E 05:04:44 10° S visible
06 Sep 4.0 04:30:43 10° NE 04:35:09 27° E 04:39:34 10° SSE visible
06 Sep 2.6 06:10:11 10° N 06:15:08 42° WNW 06:20:05 10° SW visible
07 Sep 4.7 04:07:13 10° NE 04:10:29 16° E 04:13:44 10° SE visible
07 Sep 2.1 05:45:34 10° N 05:50:50 68° WNW 05:56:05 10° SSW visible
08 Sep 2.3 05:21:08 10° NNE 05:26:26 76° ESE 05:31:44 10° S visible
09 Sep 3.1 04:56:52 10° NNE 05:01:58 46° E 05:07:02 10° S visible
10 Sep 3.9 04:32:52 10° NE 04:37:24 28° E 04:41:55 10° SSE visible
10 Sep 2.6 06:12:27 10° N 06:17:21 40° WNW 06:22:15 10° SW visible
11 Sep 4.6 04:09:18 10° NE 04:12:45 17° E 04:16:11 10° SE visible
11 Sep 2.1 05:47:49 10° N 05:53:03 64° WNW 05:58:17 10° SSW visible
12 Sep 2.2 05:23:21 10° NNE 05:28:41 80° ESE 05:33:59 10° S visible
